Project,Study,Ord_Occ,Event_Num,Cast_ID,Date_Time_UTC,Date_Time_PST,Lat_Dec,Lon_Dec,Sta_ID,Line,Sta,Depth,Pressure,PrQ,Temp1,Temp1Q,Temp2,Temp2Q,TempAve,Salt1,Salt1Q,Salt1_Corr,Salt2,Salt2Q,Salt2_Corr,SaltAve_Corr,Ox1,Ox1Q,Ox1_CruiseCorr,Ox1_StaCorr,Ox2,Ox2Q,Ox2_CruiseCorr,Ox2_StaCorr,OxAve_StaCorr,Ox1uM,Ox1uM_CruiseCorr,Ox1uM_StaCorr,Ox2uM,Ox2uM_CruiseCorr,Ox2uM_StaCorr,OxAveuM_StaCorr,FluorV,FluorQ,EstChl_CruiseCorr,EstChl_StaCorr,ISUSV,ISUSQ,EstNO3_CruiseCorr,EstNO3_StaCorr,SigThetaTS1,SigThetaTS1Q,SigThetaTS2,SigThetaTS2Q,BAT,XMiss,TransQ,pH,pHQ,SPAR,SPARQ,PAR,PARQ,PoT1,PoT2,DynHt,SVA,OxSat1,OxSat2,BTL_Depth,BTL_Temp,SaltB,OxB,OxBuM,Chl-a,Phaeo,NO3,NO2,NH4,PO4,SIL
CalCOFI,2007SR,016,,2007_016u,16-Jul-2020 06:06:33,15-Jul-2020 22:06:33,30.18142,-122.92116,093.3 110.0,093.3,110.0,516.000,520.196,,5.6446,,5.6406,,5.6426,34.2208,,34.2210,34.2228,,34.2244,34.2227,0.4375,,0.4394,0.4572,,,,,,19.027,19.3742,19.9849,,,,,0.0319,,,,1.8247,,40.9977,40.269,26.9865,,26.9885,,0.6241,85.5543,,7.534,,1.9050E+00,,1.0000E-12,,5.6007,5.5967,1.0447,,6.248,,,,,,,,,,,,,
CalCOFI,2007SR,016,,2007_016u,16-Jul-2020 06:07:25,15-Jul-2020 22:07:25,30.18140,-122.92117,093.3 110.0,093.3,110.0,515.000,519.187,,5.6442,,5.6439,,5.6441,34.2209,,34.2211,34.2223,,34.2239,34.2225,0.4272,,0.4287,0.4464,,,,,,18.579,18.9065,19.5170,,,,,0.0320,,,,1.8320,,41.2027,40.473,26.9865,,26.9877,,0.6235,85.5677,,7.534,,1.8939E+00,,1.0000E-12,,5.6004,5.6002,1.0511,,6.101,,515,5.644,34.2169,0.413,18.04,,,41.04,0.00,0.05,3.11,81.04
CalCOFI,2007SR,016,,2007_016u,16-Jul-2020 06:07:53,15-Jul-2020 22:07:53,30.18140,-122.92116,093.3 110.0,093.3,110.0,514.000,518.178,,5.6399,,5.6397,,5.6398,34.2219,,34.2221,34.2232,,34.2248,34.2235,0.4286,,0.4301,0.4479,,,,,,18.637,18.9671,19.5776,,,,,0.0320,,,,1.8293,,41.1269,40.397,26.9878,,26.9889,,0.6232,85.5734,,7.535,,1.9036E+00,,1.0000E-12,,5.5962,5.5960,1.0535,,6.120,,,,,,,,,,,,,
CalCOFI,2007SR,016,,2007_016u,16-Jul-2020 06:07:59,15-Jul-2020 22:07:59,30.18140,-122.92116,093.3 110.0,093.3,110.0,513.000,517.168,,5.6426,,5.6421,,5.6424,34.2215,,34.2217,34.2228,,34.2244,34.2231,0.4357,,0.4376,0.4553,,,,,,18.949,19.2928,19.9034,,,,,0.0315,,,,1.8289,,41.1157,40.386,26.9872,,26.9883,,0.6232,85.5741,,7.535,,1.9043E+00,,1.0000E-12,,5.5990,5.5985,1.0538,,6.222,,,,,,,,,,,,,
CalCOFI,2007SR,016,,2007_016u,16-Jul-2020 06:08:00,15-Jul-2020 22:08:00,30.18140,-122.92116,093.3 110.0,093.3,110.0,512.000,516.159,,5.6519,,5.6534,,5.6527,34.2204,,34.2206,34.2215,,34.2231,34.2219,0.4407,,0.4428,0.4605,,,,,,19.166,19.5193,20.1300,,,,,0.0323,,,,1.8290,,41.1185,40.389,26.9852,,26.9859,,0.6232,85.5741,,7.535,,1.9043E+00,,1.0000E-12,,5.6084,5.6098,1.0538,,6.295,,,,,,,,,,,,,
CalCOFI,2007SR,016,,2007_016u,16-Jul-2020 06:08:01,15-Jul-2020 22:08:01,30.18140,-122.92116,093.3 110.0,093.3,110.0,511.000,515.150,,5.6610,,5.6615,,5.6613,34.2172,,34.2174,34.2183,,34.2199,34.2187,0.4445,,0.4468,0.4645,,,,,,19.330,19.6905,20.3013,,,,,0.0313,,,,1.8289,,41.1157,40.386,26.9816,,26.9823,,0.6237,85.5642,,7.536,,1.9043E+00,,1.0000E-12,,5.6176,5.6180,1.0538,,6.350,,,,,,,,,,,,,
CalCOFI,2007SR,016,,2007_016u,16-Jul-2020 06:08:02,15-Jul-2020 22:08:02,30.18140,-122.92116,093.3 110.0,093.3,110.0,510.000,514.140,,5.6578,,5.6579,,5.6579,34.2151,,34.2153,34.2161,,34.2177,34.2165,0.4495,,0.4520,0.4697,,,,,,19.549,19.9191,20.5300,,,,,0.0317,,,,1.8287,,41.1100,40.381,26.9803,,26.9810,,0.6232,85.5740,,7.536,,1.9043E+00,,1.0000E-12,,5.6144,5.6145,1.0538,,6.421,,,,,,,,,,,,,
CalCOFI,2007SR,016,,2007_016u,16-Jul-2020 06:08:02,15-Jul-2020 22:08:02,30.18140,-122.92116,093.3 110.0,093.3,110.0,509.000,513.131,,5.6634,,5.6635,,5.6635,34.2141,,34.2143,34.2152,,34.2168,34.2156,0.4460,,0.4483,0.4661,1.9117,,0.6226,0.7392,0.6027,19.397,19.7604,20.3713,83.133,,38.2056,29.2885,0.0307,,,,1.8284,,41.1016,40.372,26.9787,,26.9797,,0.6232,85.5741,,7.536,,1.9043E+00,,1.0000E-12,,5.6201,5.6202,1.0538,,6.372,27.311,,,,,,,,,,,,
CalCOFI,2007SR,016,,2007_016u,16-Jul-2020 06:08:03,15-Jul-2020 22:08:03,30.18140,-122.92116,093.3 110.0,093.3,110.0,508.000,512.121,,5.6674,,5.6677,,5.6676,34.2136,,34.2138,34.2146,,34.2162,34.2150,0.4451,,0.4474,0.4651,1.9113,,0.6216,0.7381,0.6016,19.357,19.7187,20.3295,83.114,,38.1596,29.2446,0.0317,,,,1.8279,,41.0876,40.358,26.9779,,26.9786,,0.6232,85.5741,,7.535,,1.9043E+00,,1.0000E-12,,5.6242,5.6245,1.0538,,6.359,27.307,,,,,,,,,,,,
CalCOFI,2007SR,016,,2007_016u,16-Jul-2020 06:08:04,15-Jul-2020 22:08:04,30.18140,-122.92116,093.3 110.0,093.3,110.0,507.000,511.112,,5.6711,,5.6716,,5.6714,34.2136,,34.2138,34.2145,,34.2161,34.2150,0.4473,,0.4497,0.4674,1.9099,,0.6183,0.7346,0.6010,19.453,19.8189,20.4298,83.057,,38.0217,29.2258,0.0314,,,,1.8268,,41.0567,40.327,26.9774,,26.9781,,0.6232,85.5741,,7.537,,1.9043E+00,,1.0000E-12,,5.6279,5.6284,1.0538,,6.392,27.291,,,,,,,,,,,,
CalCOFI,2007SR,016,,2007_016u,16-Jul-2020 06:08:06,15-Jul-2020 22:08:06,30.18140,-122.92116,093.3 110.0,093.3,110.0,506.000,510.103,,5.6651,,5.6665,,5.6658,34.2142,,34.2144,34.2157,,34.2173,34.2159,0.4457,,0.4480,0.4658,1.9013,,0.5978,0.7126,0.5892,19.383,19.7458,20.3567,82.681,,37.1119,28.7343,0.0311,,,,1.8245,,40.9921,40.263,26.9786,,26.9796,,0.6234,85.5691,,7.537,,1.9043E+00,,1.0000E-12,,5.6220,5.6234,1.0538,,6.368,27.164,,,,,,,,,,,,
CalCOFI,2007SR,016,,2007_016u,16-Jul-2020 06:08:08,15-Jul-2020 22:08:08,30.18140,-122.92116,093.3 110.0,093.3,110.0,505.000,509.093,,5.6704,,5.6715,,5.6710,34.2140,,34.2142,34.2151,,34.2167,34.2155,0.4554,,0.4581,0.4759,1.9020,,0.5994,0.7144,0.5952,19.804,20.1853,20.7964,82.710,,37.1821,28.9893,0.0319,,,,1.8231,,40.9528,40.224,26.9778,,26.9785,,0.6232,85.5743,,7.536,,1.9043E+00,,1.0000E-12,,5.6274,5.6285,1.0538,,6.507,27.177,,,,,,,,,,,,
CalCOFI,2007SR,016,,2007_016u,16-Jul-2020 06:08:09,15-Jul-2020 22:08:09,30.18140,-122.92116,093.3 110.0,093.3,110.0,504.000,508.084,,5.6789,,5.6800,,5.6795,34.2139,,34.2141,34.2150,,34.2166,34.2154,0.4594,,0.4623,0.4801,1.8954,,0.5837,0.6976,0.5889,19.978,20.3669,20.9781,82.425,,36.4925,28.7353,0.0316,,,,1.8224,,40.9331,40.204,26.9767,,26.9775,,0.6232,85.5741,,7.537,,1.9043E+00,,1.0000E-12,,5.6360,5.6370,1.0538,,6.565,27.088,,,,,,,,,,,,
CalCOFI,2007SR,016,,2007_016u,16-Jul-2020 06:08:09,15-Jul-2020 22:08:09,30.18140,-122.92116,093.3 110.0,093.3,110.0,503.000,507.075,,5.6921,,5.6926,,5.6924,34.2127,,34.2129,34.2141,,34.2157,34.2143,0.4648,,0.4680,0.4857,1.8934,,0.5789,0.6925,0.5891,20.213,20.6123,21.2235,82.340,,36.2868,28.7552,0.0311,,,,1.8219,,40.9191,40.190,26.9741,,26.9752,,0.6232,85.5741,,7.537,,1.9043E+00,,1.0000E-12,,5.6492,5.6497,1.0538,,6.645,27.068,,,,,,,,,,,,
CalCOFI,2007SR,016,,2007_016u,16-Jul-2020 06:08:10,15-Jul-2020 22:08:10,30.18140,-122.92116,093.3 110.0,093.3,110.0,502.000,506.065,,5.7032,,5.7045,,5.7039,34.2116,,34.2118,34.2125,,34.2141,34.2130,0.4671,,0.4704,0.4881,1.8967,,0.5868,0.7009,0.5945,20.312,20.7156,21.3269,82.481,,36.6280,28.9775,0.0309,,,,1.8213,,40.9022,40.173,26.9719,,26.9725,,0.6235,85.5673,,7.538,,1.9043E+00,,1.0000E-12,,5.6604,5.6616,1.0538,,6.679,27.122,,,,,,,,,,,,
CalCOFI,2007SR,016,,2007_016u,16-Jul-2020 06:08:11,15-Jul-2020 22:08:11,30.18140,-122.92116,093.3 110.0,093.3,110.0,501.000,505.056,,5.7116,,5.7122,,5.7119,34.2098,,34.2100,34.2109,,34.2125,34.2113,0.4694,,0.4728,0.4905,1.8971,,0.5877,0.7019,0.5962,20.413,20.8210,21.4324,82.498,,36.6691,29.0508,0.0314,,,,1.8205,,40.8798,40.151,26.9694,,26.9703,,0.6235,85.5679,,7.537,,1.9043E+00,,1.0000E-12,,5.6688,5.6694,1.0538,,6.713,27.132,,,,,,,,,,,,
CalCOFI,2007SR,016,,2007_016u,16-Jul-2020 06:08:12,15-Jul-2020 22:08:12,30.18140,-122.92116,093.3 110.0,093.3,110.0,500.000,504.047,,5.7143,,5.7151,,5.7147,34.2080,,34.2082,34.2090,,34.2106,34.2094,0.4707,,0.4741,0.4919,1.8968,,0.5870,0.7012,0.5966,20.468,20.8784,21.4898,82.485,,36.6377,29.0638,0.0317,,,,1.8194,,40.8489,40.120,26.9676,,26.9684,,0.6232,85.5738,,7.538,,1.9043E+00,,1.0000E-12,,5.6716,5.6724,1.0538,,6.732,27.129,,,,,,,,,,,,
CalCOFI,2007SR,016,,2007_016u,16-Jul-2020 06:08:13,15-Jul-2020 22:08:13,30.18140,-122.92116,093.3 110.0,093.3,110.0,499.000,503.037,,5.7200,,5.7219,,5.7210,34.2071,,34.2073,34.2080,,34.2096,34.2085,0.4775,,0.4812,0.4990,1.8962,,0.5856,0.6996,0.5993,20.764,21.1874,21.7990,82.460,,36.5772,29.1881,0.0312,,,,1.8180,,40.8096,40.081,26.9662,,26.9667,,0.6232,85.5741,,7.538,,1.9043E+00,,1.0000E-12,,5.6774,5.6793,1.0538,,6.830,27.125,,,,,,,,,,,,
CalCOFI,2007SR,016,,2007_016u,16-Jul-2020 06:08:14,15-Jul-2020 22:08:14,30.18140,-122.92116,093.3 110.0,093.3,110.0,498.000,502.028,,5.7260,,5.7273,,5.7267,34.2064,,34.2066,34.2073,,34.2089,34.2078,0.4839,,0.4879,0.5057,1.8943,,0.5811,0.6948,0.6003,21.045,21.4808,22.0925,82.377,,36.3764,29.2345,0.0311,,,,1.8163,,40.7618,40.033,26.9649,,26.9655,,0.6232,85.5741,,7.538,,1.9043E+00,,1.0000E-12,,5.6834,5.6847,1.0538,,6.923,27.101,,,,,,,,,,,,
CalCOFI,2007SR,016,,2007_016u,16-Jul-2020 06:08:16,15-Jul-2020 22:08:16,30.18140,-122.92116,093.3 110.0,093.3,110.0,497.000,501.019,,5.7392,,5.7396,,5.7394,34.2046,,34.2048,34.2057,,34.2073,34.2061,0.4887,,0.4929,0.5107,1.8826,,0.5531,0.6650,0.5879,21.253,21.6979,22.3097,81.872,,35.1544,28.7321,0.0314,,,,1.8150,,40.7253,39.997,26.9619,,26.9627,,0.6232,85.5741,,7.538,,1.9043E+00,,1.0000E-12,,5.6967,5.6971,1.0538,,6.994,26.942,,,,,,,,,,,,
CalCOFI,2007SR,016,,2007_016u,16-Jul-2020 06:08:16,15-Jul-2020 22:08:16,30.18140,-122.92116,093.3 110.0,093.3,110.0,496.000,500.010,,5.7476,,5.7479,,5.7478,34.2021,,34.2023,34.2031,,34.2047,34.2035,0.4886,,0.4928,0.5106,1.8855,,0.5601,0.6724,0.5915,21.248,21.6927,22.3045,81.996,,35.4545,28.8795,0.0323,,,,1.8143,,40.7057,39.977,26.9589,,26.9596,,0.6236,85.5664,,7.538,,1.9043E+00,,1.0000E-12,,5.7051,5.7054,1.0538,,6.993,26.988,,,,,,,,,,,,
CalCOFI,2007SR,016,,2007_016u,16-Jul-2020 06:08:17,15-Jul-2020 22:08:17,30.18140,-122.92116,093.3 110.0,093.3,110.0,495.000,499.000,,5.7499,,5.7506,,5.7503,34.2015,,34.2017,34.2023,,34.2039,34.2028,0.4914,,0.4958,0.5135,1.8884,,0.5670,0.6798,0.5967,21.369,21.8190,22.4308,82.122,,35.7594,29.0951,0.0319,,,,1.8140,,40.6973,39.969,26.9581,,26.9587,,0.6232,85.5742,,7.538,,1.9043E+00,,1.0000E-12,,5.7075,5.7082,1.0538,,7.034,27.031,,,,,,,,,,,,
CalCOFI,2007SR,016,,2007_016u,16-Jul-2020 06:08:18,15-Jul-2020 22:08:18,30.18140,-122.92116,093.3 110.0,093.3,110.0,494.000,497.991,,5.7558,,5.7565,,5.7562,34.2011,,34.2013,34.2023,,34.2039,34.2026,0.4951,,0.4996,0.5174,1.8878,,0.5655,0.6782,0.5978,21.531,21.9881,22.6000,82.096,,35.6964,29.1482,0.0310,,,,1.8140,,40.6973,39.969,26.9571,,26.9579,,0.6232,85.5741,,7.538,,1.9043E+00,,1.0000E-12,,5.7135,5.7142,1.0538,,7.088,27.026,,,,,,,,,,,,
CalCOFI,2007SR,016,,2007_016u,16-Jul-2020 06:08:19,15-Jul-2020 22:08:19,30.18140,-122.92116,093.3 110.0,093.3,110.0,493.000,496.982,,5.7646,,5.7659,,5.7653,34.2008,,34.2010,34.2016,,34.2032,34.2021,0.4968,,0.5014,0.5192,1.8871,,0.5639,0.6765,0.5979,21.605,22.0654,22.6773,82.065,,35.6214,29.1494,0.0314,,,,1.8142,,40.7029,39.974,26.9557,,26.9562,,0.6232,85.5741,,7.538,,1.9043E+00,,1.0000E-12,,5.7223,5.7236,1.0538,,7.114,27.022,,,,,,,,,,,,
CalCOFI,2007SR,016,,2007_016u,16-Jul-2020 06:08:20,15-Jul-2020 22:08:20,30.18140,-122.92116,093.3 110.0,093.3,110.0,492.000,495.972,,5.7685,,5.7689,,5.7687,34.1998,,34.2000,34.2007,,34.2023,34.2012,0.4944,,0.4989,0.5167,1.8867,,0.5629,0.6754,0.5961,21.500,21.9558,22.5676,82.049,,35.5827,29.0752,0.0323,,,,1.8147,,40.7169,39.988,26.9544,,26.9551,,0.6232,85.5741,,7.538,,1.9043E+00,,1.0000E-12,,5.7263,5.7267,1.0538,,7.080,27.018,,,,,,,,,,,,
CalCOFI,2007SR,016,,2007_016u,16-Jul-2020 06:08:21,15-Jul-2020 22:08:21,30.18140,-122.92116,093.3 110.0,093.3,110.0,491.000,494.963,,5.7711,,5.7713,,5.7712,34.1991,,34.1993,34.1999,,34.2015,34.2004,0.4996,,0.5043,0.5221,1.8843,,0.5572,0.6693,0.5957,21.726,22.1917,22.8037,81.943,,35.3262,29.0650,0.0320,,,,1.8149,,40.7225,39.994,26.9536,,26.9542,,0.6232,85.5741,,7.538,,1.9043E+00,,1.0000E-12,,5.7290,5.7292,1.0538,,7.154,26.984,,,,,,,,,,,,
CalCOFI,2007SR,016,,2007_016u,16-Jul-2020 06:08:22,15-Jul-2020 22:08:22,30.18140,-122.92116,093.3 110.0,093.3,110.0,490.000,493.954,,5.7708,,5.7711,,5.7710,34.1987,,34.1989,34.1997,,34.2013,34.2001,0.4973,,0.5019,0.5197,1.8829,,0.5538,0.6657,0.5927,21.625,22.0862,22.6982,81.884,,35.1835,28.9409,0.0316,,,,1.8151,,40.7282,39.999,26.9533,,26.9540,,0.6232,85.5741,,7.538,,1.9043E+00,,1.0000E-12,,5.7288,5.7290,1.0538,,7.121,26.965,,,,,,,,,,,,
CalCOFI,2007SR,016,,2007_016u,16-Jul-2020 06:08:23,15-Jul-2020 22:08:23,30.18140,-122.92116,093.3 110.0,093.3,110.0,489.000,492.945,,5.7703,,5.7705,,5.7704,34.1985,,34.1987,34.1993,,34.2009,34.1998,0.5074,,0.5125,0.5302,1.8851,,0.5591,0.6714,0.6008,22.066,22.5466,23.1588,81.978,,35.4109,29.2849,0.0318,,,,1.8158,,40.7478,40.019,26.9531,,26.9538,,0.6232,85.5741,,7.538,,1.9043E+00,,1.0000E-12,,5.7284,5.7286,1.0538,,7.266,26.995,,,,,,,,,,,,
CalCOFI,2007SR,016,,2007_016u,16-Jul-2020 06:08:25,15-Jul-2020 22:08:25,30.18140,-122.92116,093.3 110.0,093.3,110.0,488.000,491.935,,5.7674,,5.7674,,5.7674,34.1970,,34.1972,34.1976,,34.1992,34.1982,0.5135,,0.5189,0.5366,1.8879,,0.5658,0.6785,0.6076,22.329,22.8211,23.4334,82.100,,35.7061,29.5698,0.0322,,,,1.8168,,40.7759,40.047,26.9523,,26.9528,,0.6232,85.5741,,7.538,,1.9043E+00,,1.0000E-12,,5.7256,5.7256,1.0538,,7.352,27.033,,,,,,,,,,,,
CalCOFI,2007SR,016,,2007_016u,16-Jul-2020 06:08:26,15-Jul-2020 22:08:26,30.18140,-122.92116,093.3 110.0,093.3,110.0,487.000,490.926,,5.7625,,5.7624,,5.7625,34.1938,,34.1940,34.1944,,34.1960,34.1950,0.5155,,0.5209,0.5387,1.8757,,0.5367,0.6474,0.5931,22.416,22.9120,23.5243,81.571,,34.4261,28.9752,0.0314,,,,1.8179,,40.8068,40.078,26.9503,,26.9509,,0.6232,85.5741,,7.538,,1.9043E+00,,1.0000E-12,,5.7208,5.7207,1.0538,,7.380,26.855,,,,,,,,,,,,
CalCOFI,2007SR,016,,2007_016u,16-Jul-2020 06:08:27,15-Jul-2020 22:08:27,30.18140,-122.92116,093.3 110.0,093.3,110.0,486.000,489.917,,5.7688,,5.7706,,5.7697,34.1923,,34.1925,34.1936,,34.1952,34.1939,0.5180,,0.5236,0.5413,1.8775,,0.5410,0.6520,0.5967,22.528,23.0289,23.6413,81.649,,34.6149,29.1281,0.0318,,,,1.8190,,40.8377,40.109,26.9484,,26.9492,,0.6232,85.5741,,7.538,,1.9043E+00,,1.0000E-12,,5.7271,5.7289,1.0538,,7.418,26.886,,,,,,,,,,,,
CalCOFI,2007SR,016,,2007_016u,16-Jul-2020 06:08:27,15-Jul-2020 22:08:27,30.18140,-122.92116,093.3 110.0,093.3,110.0,485.000,488.908,,5.7873,,5.7907,,5.7890,34.1928,,34.1930,34.1946,,34.1962,34.1946,0.5192,,0.5248,0.5426,1.8778,,0.5417,0.6527,0.5977,22.580,23.0832,23.6956,81.663,,34.6487,29.1722,0.0323,,,,1.8205,,40.8798,40.151,26.9465,,26.9476,,0.6232,85.5741,,7.538,,1.9043E+00,,1.0000E-12,,5.7457,5.7491,1.0538,,7.438,26.903,,,,,,,,,,,,
CalCOFI,2007SR,016,,2007_016u,16-Jul-2020 06:08:28,15-Jul-2020 22:08:28,30.18140,-122.92116,093.3 110.0,093.3,110.0,484.000,487.898,,5.8174,,5.8211,,5.8193,34.1953,,34.1955,34.1964,,34.1980,34.1968,0.5218,,0.5275,0.5453,1.8771,,0.5400,0.6510,0.5982,22.693,23.2011,23.8136,81.633,,34.5761,29.1949,0.0310,,,,1.8220,,40.9219,40.193,26.9447,,26.9452,,0.6234,85.5707,,7.538,,1.9043E+00,,1.0000E-12,,5.7758,5.7794,1.0538,,7.481,26.913,,,,,,,,,,,,
CalCOFI,2007SR,016,,2007_016u,16-Jul-2020 06:08:29,15-Jul-2020 22:08:29,30.18140,-122.92116,093.3 110.0,093.3,110.0,483.000,486.889,,5.8273,,5.8281,,5.8277,34.1940,,34.1942,34.1947,,34.1963,34.1953,0.5256,,0.5315,0.5493,1.8766,,0.5388,0.6497,0.5995,22.857,23.3723,23.9849,81.608,,34.5157,29.2503,0.0319,,,,1.8233,,40.9584,40.229,26.9425,,26.9430,,0.6241,85.5551,,7.538,,1.9043E+00,,1.0000E-12,,5.7857,5.7865,1.0538,,7.537,26.909,,,,,,,,,,,,
CalCOFI,2007SR,016,,2007_016u,16-Jul-2020 06:08:30,15-Jul-2020 22:08:30,30.18140,-122.92116,093.3 110.0,093.3,110.0,482.000,485.880,,5.8308,,5.8317,,5.8313,34.1919,,34.1921,34.1929,,34.1945,34.1933,0.5282,,0.5342,0.5520,1.8762,,0.5379,0.6487,0.6004,22.973,23.4934,24.1060,81.591,,34.4745,29.2903,0.0317,,,,1.8245,,40.9921,40.263,26.9405,,26.9411,,0.6234,85.5698,,7.538,,1.9043E+00,,1.0000E-12,,5.7893,5.7902,1.0538,,7.575,26.905,,,,,,,,,,,,
CalCOFI,2007SR,016,,2007_016u,16-Jul-2020 06:08:31,15-Jul-2020 22:08:31,30.18140,-122.92116,093.3 110.0,093.3,110.0,481.000,484.871,,5.8498,,5.8511,,5.8505,34.1917,,34.1919,34.1931,,34.1947,34.1933,0.5307,,0.5368,0.5546,1.8749,,0.5347,0.6454,0.6000,23.078,23.6030,24.2157,81.538,,34.3463,29.2810,0.0316,,,,1.8254,,41.0174,40.288,26.9379,,26.9389,,0.6232,85.5741,,7.538,,1.9043E+00,,1.0000E-12,,5.8083,5.8096,1.0538,,7.613,26.900,,,,,,,,,,,,
CalCOFI,2007SR,016,,2007_016u,16-Jul-2020 06:08:32,15-Jul-2020 22:08:32,30.18140,-122.92116,093.3 110.0,093.3,110.0,480.000,483.861,,5.8644,,5.8667,,5.8656,34.1913,,34.1915,34.1925,,34.1941,34.1928,0.5375,,0.5439,0.5617,1.8739,,0.5324,0.6428,0.6023,23.376,23.9141,24.5269,81.494,,34.2398,29.3834,0.0324,,,,1.8258,,41.0286,40.299,26.9358,,26.9365,,0.6232,85.5741,,7.538,,1.9043E+00,,1.0000E-12,,5.8229,5.8252,1.0538,,7.714,26.895,,,,,,,,,,,,
CalCOFI,2007SR,016,,2007_016u,16-Jul-2020 06:08:33,15-Jul-2020 22:08:33,30.18140,-122.92116,093.3 110.0,093.3,110.0,479.000,482.852,,5.8762,,5.8769,,5.8766,34.1903,,34.1905,34.1913,,34.1929,34.1917,0.5403,,0.5469,0.5646,1.8732,,0.5307,0.6410,0.6028,23.495,24.0383,24.6512,81.462,,34.1624,29.4068,0.0326,,,,1.8260,,41.0342,40.305,26.9336,,26.9342,,0.6232,85.5741,,7.538,,1.9043E+00,,1.0000E-12,,5.8347,5.8355,1.0538,,7.755,26.890,,,,,,,,,,,,
CalCOFI,2007SR,016,,2007_016u,16-Jul-2020 06:08:34,15-Jul-2020 22:08:34,30.18140,-122.92116,093.3 110.0,093.3,110.0,478.000,481.843,,5.8808,,5.8811,,5.8810,34.1898,,34.1900,34.1908,,34.1924,34.1912,0.5453,,0.5521,0.5699,1.8727,,0.5295,0.6397,0.6048,23.713,24.2659,24.8789,81.443,,34.1164,29.4977,0.0309,,,,1.8255,,41.0202,40.291,26.9325,,26.9333,,0.6232,85.5741,,7.538,,1.9043E+00,,1.0000E-12,,5.8394,5.8397,1.0538,,7.828,26.887,,,,,,,,,,,,
CalCOFI,2007SR,016,,2007_016u,16-Jul-2020 06:08:35,15-Jul-2020 22:08:35,30.18140,-122.92116,093.3 110.0,093.3,110.0,477.000,480.834,,5.8829,,5.8833,,5.8831,34.1891,,34.1893,34.1901,,34.1917,34.1905,0.5492,,0.5562,0.5739,1.8724,,0.5288,0.6390,0.6065,23.884,24.4444,25.0575,81.428,,34.0801,29.5688,0.0315,,,,1.8243,,40.9865,40.257,26.9317,,26.9325,,0.6232,85.5741,,7.539,,1.9043E+00,,1.0000E-12,,5.8417,5.8420,1.0538,,7.885,26.883,,,,,,,,,,,,
CalCOFI,2007SR,016,,2007_016u,16-Jul-2020 06:08:36,15-Jul-2020 22:08:36,30.18140,-122.92116,093.3 110.0,093.3,110.0,476.000,479.825,,5.8931,,5.8946,,5.8939,34.1883,,34.1885,34.1893,,34.1909,34.1897,0.5568,,0.5641,0.5819,1.8706,,0.5245,0.6344,0.6082,24.215,24.7899,25.4032,81.351,,33.8938,29.6485,0.0321,,,,1.8225,,40.9359,40.207,26.9298,,26.9304,,0.6235,85.5685,,7.539,,1.9043E+00,,1.0000E-12,,5.8519,5.8534,1.0538,,7.996,26.864,,,,,,,,,,,,
CalCOFI,2007SR,016,,2007_016u,16-Jul-2020 06:08:38,15-Jul-2020 22:08:38,30.18140,-122.92116,093.3 110.0,093.3,110.0,475.000,478.815,,5.9055,,5.9073,,5.9064,34.1862,,34.1864,34.1869,,34.1885,34.1875,0.5609,,0.5684,0.5862,1.8698,,0.5226,0.6324,0.6093,24.395,24.9778,25.5912,81.314,,33.8043,29.6978,0.0318,,,,1.8201,,40.8686,40.140,26.9266,,26.9269,,0.6232,85.5742,,7.540,,1.9043E+00,,1.0000E-12,,5.8643,5.8661,1.0538,,8.058,26.860,,,,,,,,,,,,
CalCOFI,2007SR,016,,2007_016u,16-Jul-2020 06:08:39,15-Jul-2020 22:08:39,30.18140,-122.92116,093.3 110.0,093.3,110.0,474.000,477.806,,5.9116,,5.9119,,5.9118,34.1845,,34.1847,34.1854,,34.1870,34.1859,0.5652,,0.5729,0.5907,1.8719,,0.5276,0.6377,0.6142,24.580,25.1710,25.7844,81.408,,34.0317,29.9081,0.0319,,,,1.8179,,40.8068,40.078,26.9245,,26.9252,,0.6232,85.5741,,7.540,,1.9043E+00,,1.0000E-12,,5.8705,5.8708,1.0538,,8.120,26.893,,,,,,,,,,,,
CalCOFI,2007SR,016,,2007_016u,16-Jul-2020 06:08:40,15-Jul-2020 22:08:40,30.18140,-122.92116,093.3 110.0,093.3,110.0,473.000,476.797,,5.9115,,5.9117,,5.9116,34.1837,,34.1839,34.1846,,34.1862,34.1851,0.5662,,0.5739,0.5917,1.8711,,0.5257,0.6357,0.6137,24.625,25.2179,25.8314,81.372,,33.9446,29.8880,0.0319,,,,1.8161,,40.7562,40.027,26.9239,,26.9245,,0.6232,85.5741,,7.541,,1.9043E+00,,1.0000E-12,,5.8705,5.8707,1.0538,,8.135,26.881,,,,,,,,,,,,
CalCOFI,2007SR,016,,2007_016u,16-Jul-2020 06:08:41,15-Jul-2020 22:08:41,30.18140,-122.92116,093.3 110.0,093.3,110.0,472.000,475.788,,5.9101,,5.9100,,5.9101,34.1828,,34.1830,34.1836,,34.1852,34.1841,0.5722,,0.5802,0.5980,1.8704,,0.5240,0.6339,0.6160,24.886,25.4904,26.1039,81.343,,33.8744,29.9892,0.0316,,,,1.8143,,40.7057,39.977,26.9233,,26.9239,,0.6232,85.5741,,7.542,,1.9043E+00,,1.0000E-12,,5.8692,5.8691,1.0538,,8.221,26.870,,,,,,,,,,,,
CalCOFI,2007SR,016,,2007_016u,16-Jul-2020 06:08:42,15-Jul-2020 22:08:42,30.18140,-122.92116,093.3 110.0,093.3,110.0,471.000,474.779,,5.9048,,5.9049,,5.9049,34.1814,,34.1816,34.1820,,34.1836,34.1826,0.5783,,0.5866,0.6043,1.8704,,0.5240,0.6339,0.6191,25.152,25.7681,26.3818,81.341,,33.8696,30.1257,0.0319,,,,1.8120,,40.6411,39.912,26.9228,,26.9233,,0.6232,85.5741,,7.542,,1.9043E+00,,1.0000E-12,,5.8640,5.8641,1.0538,,8.307,26.866,,,,,,,,,,,,
CalCOFI,2007SR,016,,2007_016u,16-Jul-2020 06:08:42,15-Jul-2020 22:08:42,30.18140,-122.92116,093.3 110.0,093.3,110.0,470.000,473.769,,5.8991,,5.8984,,5.8988,34.1795,,34.1797,34.1799,,34.1815,34.1806,0.5844,,0.5929,0.6107,1.8705,,0.5242,0.6341,0.6224,25.412,26.0395,26.6533,81.346,,33.8817,30.2675,0.0308,,,,1.8091,,40.5597,39.831,26.9220,,26.9224,,0.6232,85.5741,,7.542,,1.9043E+00,,1.0000E-12,,5.8584,5.8577,1.0538,,8.392,26.863,,,,,,,,,,,,
CalCOFI,2007SR,016,,2007_016u,16-Jul-2020 06:08:43,15-Jul-2020 22:08:43,30.18140,-122.92116,093.3 110.0,093.3,110.0,469.000,472.760,,5.8894,,5.8891,,5.8893,34.1751,,34.1753,34.1757,,34.1773,34.1763,0.5905,,0.5993,0.6171,1.8708,,0.5250,0.6349,0.6260,25.681,26.3203,26.9342,81.358,,33.9107,30.4225,0.0311,,,,1.8064,,40.4839,39.756,26.9198,,26.9202,,0.6232,85.5741,,7.543,,1.9043E+00,,1.0000E-12,,5.8489,5.8485,1.0538,,8.479,26.860,,,,,,,,,,,,
CalCOFI,2007SR,016,,2007_016u,16-Jul-2020 06:08:44,15-Jul-2020 22:08:44,30.18140,-122.92116,093.3 110.0,093.3,110.0,468.000,471.751,,5.8907,,5.8919,,5.8913,34.1743,,34.1745,34.1752,,34.1768,34.1757,0.5913,,0.6001,0.6179,1.8704,,0.5240,0.6339,0.6259,25.715,26.3558,26.9697,81.341,,33.8696,30.4197,0.0309,,,,1.8039,,40.4137,39.685,26.9189,,26.9195,,0.6232,85.5741,,7.543,,1.9043E+00,,1.0000E-12,,5.8502,5.8514,1.0538,,8.490,26.857,,,,,,,,,,,,
CalCOFI,2007SR,016,,2007_016u,16-Jul-2020 06:08:45,15-Jul-2020 22:08:45,30.18140,-122.92116,093.3 110.0,093.3,110.0,467.000,470.742,,5.8990,,5.8993,,5.8992,34.1737,,34.1739,34.1745,,34.1761,34.1750,0.5912,,0.6000,0.6178,1.8711,,0.5257,0.6357,0.6268,25.712,26.3527,26.9666,81.373,,33.9470,30.4568,0.0308,,,,1.8016,,40.3491,39.621,26.9174,,26.9180,,0.6232,85.5741,,7.543,,1.9043E+00,,1.0000E-12,,5.8586,5.8589,1.0538,,8.491,26.872,,,,,,,,,,,,
CalCOFI,2007SR,016,,2007_016u,16-Jul-2020 06:08:46,15-Jul-2020 22:08:46,30.18140,-122.92116,093.3 110.0,093.3,110.0,466.000,469.733,,5.9005,,5.9011,,5.9008,34.1731,,34.1733,34.1736,,34.1752,34.1743,0.5918,,0.6007,0.6185,1.8749,,0.5347,0.6454,0.6320,25.739,26.3808,26.9948,81.539,,34.3487,30.6718,0.0314,,,,1.7993,,40.2845,39.556,26.9168,,26.9171,,0.6232,85.5741,,7.543,,1.9043E+00,,1.0000E-12,,5.8601,5.8607,1.0538,,8.500,26.927,,,,,,,,,,,,
CalCOFI,2007SR,016,,2007_016u,16-Jul-2020 06:08:47,15-Jul-2020 22:08:47,30.18140,-122.92116,093.3 110.0,093.3,110.0,465.000,468.724,,5.8995,,5.8993,,5.8994,34.1727,,34.1729,34.1737,,34.1753,34.1741,0.5913,,0.6001,0.6179,1.8755,,0.5362,0.6469,0.6324,25.713,26.3537,26.9677,81.566,,34.4140,30.6909,0.0318,,,,1.7963,,40.2002,39.472,26.9165,,26.9173,,0.6232,85.5741,,7.543,,1.9043E+00,,1.0000E-12,,5.8593,5.8591,1.0538,,8.491,26.935,,,,,,,,,,,,
CalCOFI,2007SR,016,,2007_016u,16-Jul-2020 06:08:49,15-Jul-2020 22:08:49,30.18140,-122.92116,093.3 110.0,093.3,110.0,464.000,467.715,,5.8967,,5.8958,,5.8963,34.1734,,34.1736,34.1738,,34.1754,34.1745,0.6074,,0.6170,0.6348,1.8748,,0.5345,0.6451,0.6400,26.415,27.0865,27.7008,81.532,,34.3318,31.0163,0.0319,,,,1.7931,,40.1104,39.383,26.9174,,26.9179,,0.6233,85.5729,,7.543,,1.9043E+00,,1.0000E-12,,5.8565,5.8557,1.0538,,8.722,26.922,,,,,,,,,,,,